IZ2OSD Weather Reports


time (UTC)temp
F
wind
direction
speed
knots
gust
knots
rain 1hr
in
rain 24hr
in
rain mn
in
humidity
%
barometer
mb
20260504150206 72 292 0.0 2.6 0.00 0.00 0.00 45 1015.1
20260504141158 72 292 0.9 1.7 0.00 0.00 0.00 42 1015.5
20260504140155 72 315 1.7 3.5 0.00 0.00 0.00 41 1015.5
20260504130133 72 292 1.7 2.6 0.00 0.00 0.00 42 1016.1
20260504120113 71 292 1.7 2.6 0.00 0.00 0.00 42 1016.4
20260504081428 70 292 0.0 1.7 0.00 0.00 0.00 39 1016.8
20260504080424 69 315 0.0 0.9 0.00 0.00 0.00 41 1016.8
20260504070351 68 292 0.0 0.9 0.00 0.00 0.00 42 1016.5
20260504050302 58 0.0 0.0 0.00 0.00 0.00 60 1016.0
20260504045300 57 0.0 0.0 0.00 0.00 0.00 59 1015.9
20260504044255 58 0.0 0.0 0.00 0.00 0.00 58 1015.5
20260504043246 57 0.0 0.0 0.00 0.00 0.00 60 1015.3
20260504042242 57 0.0 0.0 0.00 0.00 0.00 60 1015.7
20260504041233 57 0.0 0.0 0.00 0.00 0.00 60 1015.5
20260504040230 57 0.0 0.0 0.00 0.00 0.00 60 1015.5
20260504035225 57 0.0 0.0 0.00 0.00 0.00 61 1015.3
20260504034222 57 0.0 0.0 0.00 0.00 0.00 61 1015.5
20260504033218 57 0.0 0.0 0.00 0.00 0.00 61 1015.5
20260504032215 57 0.0 0.0 0.00 0.00 0.00 62 1015.5
20260504031211 57 0.0 0.0 0.00 0.00 0.00 63 1015.4
20260504030208 57 0.0 0.0 0.00 0.00 0.00 64 1015.6
20260504025158 57 0.0 0.0 0.00 0.00 0.00 64 1015.3
20260504024155 58 0.0 0.0 0.00 0.00 0.00 63 1015.4
20260504023145 58 0.0 0.0 0.00 0.00 0.00 63 1015.4
20260504022201 59 0.0 0.0 0.00 0.00 0.00 63 1015.6
20260504021137 59 0.0 0.0 0.00 0.00 0.00 63 1015.5
20260504020214 59 0.0 0.0 0.00 0.00 0.00 63 1015.6
20260504015124 59 0.0 0.0 0.00 0.00 0.00 61 1015.6
20260504014121 60 0.0 0.0 0.00 0.00 0.00 60 1015.7
20260504013112 61 0.0 0.0 0.00 0.00 0.00 57 1015.5
20260504012130 61 0.0 0.0 0.00 0.00 0.00 56 1015.4
20260504011059 61 0.0 0.0 0.00 0.00 0.00 57 1015.6
20260504010053 61 0.0 0.0 0.00 0.00 0.00 56 1015.5
20260504005050 61 315 0.0 0.9 0.00 0.00 0.00 57 1015.8
20260504004046 61 0.0 0.0 0.00 0.00 0.00 59 1015.8
20260504003036 61 0.0 0.0 0.00 0.00 0.00 60 1016.0
20260504002035 61 315 0.0 0.9 0.00 0.00 0.00 60 1015.9
20260504001023 61 0.0 0.0 0.00 0.00 0.00 59 1016.4
20260504000021 62 0.0 0.0 0.00 0.00 0.00 59 1016.2
20260503235014 62 0.0 0.0 0.00 0.00 0.00 58 1016.1
20260503234011 62 0.0 0.0 0.00 0.00 0.00 57 1016.3
20260503233008 62 0.0 0.0 0.00 0.00 0.00 57 1016.5
20260503232500 62 0.0 0.0 0.00 0.00 0.00 57 1016.7
20260503231455 62 0.0 0.0 0.00 0.00 0.00 56 1016.5
20260503230446 62 0.0 0.0 0.00 0.00 0.00 56 1016.6
20260503225445 62 0.0 0.0 0.00 0.00 0.00 55 1016.6
20260503224438 63 0.0 0.0 0.00 0.00 0.00 54 1016.6
20260503223435 63 0.0 0.0 0.00 0.00 0.00 53 1016.6
20260503222432 63 0.0 0.0 0.00 0.00 0.00 53 1016.6
20260503221423 64 0.0 0.0 0.00 0.00 0.00 53 1016.7
20260503220419 64 0.0 0.0 0.00 0.00 0.00 53 1016.5
20260503215414 64 0.0 0.0 0.00 0.00 0.00 51 1016.4
20260503214430 64 0.0 0.0 0.00 0.00 0.00 50 1016.3
20260503213408 64 0.0 0.0 0.00 0.00 0.00 50 1016.3
20260503212405 64 0.0 0.0 0.00 0.00 0.00 49 1016.3
20260503211401 65 0.0 0.0 0.00 0.00 0.00 49 1016.2
20260503210358 65 0.0 0.0 0.00 0.00 0.00 49 1016.2
20260503205355 65 0.0 0.0 0.00 0.00 0.00 48 1016.1
20260503204351 65 0.0 0.0 0.00 0.00 0.00 47 1016.3
20260503203347 65 0.0 0.0 0.00 0.00 0.00 47 1016.2
20260503202344 65 0.0 0.0 0.00 0.00 0.00 46 1016.2
20260503201334 65 0.0 0.0 0.00 0.00 0.00 45 1016.1
20260503200324 66 0.0 0.0 0.00 0.00 0.00 44 1016.0
20260503195321 66 0.0 0.0 0.00 0.00 0.00 43 1016.0
20260503194317 67 0.0 0.0 0.00 0.00 0.00 44 1015.7
20260503193313 67 0.0 0.0 0.00 0.00 0.00 43 1015.8
20260503192310 68 0.0 0.0 0.00 0.00 0.00 44 1015.6
20260503191306 68 0.0 0.0 0.00 0.00 0.00 43 1015.3
20260503190258 68 315 0.0 0.9 0.00 0.00 0.00 42 1015.7
20260503185253 69 315 0.9 1.7 0.00 0.00 0.00 43 1015.3
20260503184249 69 315 0.9 2.6 0.00 0.00 0.00 43 1015.4
20260503183246 69 315 0.9 1.7 0.00 0.00 0.00 41 1015.3
20260503182237 70 315 0.9 1.7 0.00 0.00 0.00 39 1015.2
20260503181234 71 0.0 0.0 0.00 0.00 0.00 38 1015.1
20260503180224 71 0.0 0.9 0.00 0.00 0.00 38 1015.3
20260503175219 71 0.0 0.9 0.00 0.00 0.00 39 1014.9
20260503174214 71 292 0.0 1.7 0.00 0.00 0.00 41 1015.3
20260503173211 73 0.0 0.0 0.00 0.00 0.00 40 1015.3
20260503172208 73 0.0 0.0 0.00 0.00 0.00 40 1015.1
20260503171205 73 0.0 0.0 0.00 0.00 0.00 40 1015.1
20260503170201 73 0.0 0.0 0.00 0.00 0.00 39 1015.1
20260503160133 74 315 0.9 1.7 0.00 0.00 0.00 39 1015.6